Flag for U.S.A. Weather past 2 weeks in Sunnyvale, California, U.S.A.

Now
78 °F

Sunny.


Feels Like: 79 °F
Forecast: 60 / 78 °F
Wind: 15 mph from North

Location: Moffett Field

Current Time: Sep 17, 2014 at 3:43:02 PM

Latest Report: Sep 17, 2014 at 2:56 PM


Visibility: 10 mi

Pressure: 29.78 "Hg

Humidity: 50%

Dew point: 58 °F

Location of SunnyvaleLocation

Historic Weather in Sunnyvale — Graph

°F

Sunnyvale temperature yesterday

Maximum temperature yesterday: 81 °F (at 1:56 PM)
Minimum temperature yesterday: 57 °F (at 6:56 AM)
Average temperature yesterday: 68 °F

Past Weeks' High & Low Weather Summary

 TemperatureHumidityPressure
High86 °F (Sep 10, 2:56 PM)90% (Sep 10, 5:56 AM)30.02 "Hg (Sep 10, 5:56 AM)
Low56 °F (Sep 9, 1:56 AM)29% (Sep 10, 2:56 PM)29.71 "Hg (Sep 3, 4:56 PM)
Average67 °F71%29.87 "Hg
* Reported Sep 2 1:56 PM — Sep 17 1:56 PM, Sunnyvale, Weather by CustomWeather, © 2014

Note: Actual official high and low records may vary slightly from our data, if they occured in-between our weather recording intervals... More about our weather records

Advertising

Sunnyvale weather history for previous 24 hours

 ConditionsComfort  
Time TempWeatherWind HumidityBarometerVisibility
1:56 PM
Sep 17
78 °FSunny.13 mph52%29.78 "Hg10 mi
12:56 PM77 °FSunny.7 mph52%29.80 "Hg10 mi
11:56 AM73 °FSunny.5 mph62%29.82 "Hg10 mi
10:56 AM71 °FSunny.7 mph66%29.83 "Hg10 mi
9:56 AM68 °FSunny.6 mph73%29.84 "Hg10 mi
8:56 AM66 °FOvercast.No wind75%29.84 "Hg10 mi
7:56 AM65 °FOvercast.No wind81%29.84 "Hg10 mi
6:56 AM65 °FOvercast.5 mph81%29.83 "Hg10 mi
5:56 AM64 °FOvercast.3 mph84%29.82 "Hg10 mi
4:56 AM64 °FOvercast.5 mph87%29.82 "Hg10 mi
3:56 AM64 °FOvercast.No wind84%29.82 "Hg10 mi
2:56 AM64 °FPassing clouds.No wind84%29.83 "Hg10 mi
1:56 AM63 °FClear.3 mph87%29.83 "Hg10 mi
12:56 AM64 °FClear.5 mph84%29.83 "Hg10 mi
11:56 PM
Sep 16
65 °FClear.7 mph85%29.84 "Hg10 mi
10:56 PM66 °FClear.7 mph81%29.85 "Hg10 mi
9:56 PM66 °FClear.7 mph81%29.85 "Hg10 mi
8:56 PM68 °FClear.9 mph73%29.84 "Hg10 mi
7:56 PM70 °FSunny.8 mph73%29.83 "Hg10 mi
6:56 PM71 °FSunny.14 mph68%29.82 "Hg10 mi
5:56 PM75 °FSunny.9 mph58%29.82 "Hg10 mi
4:56 PM78 °FSunny.12 mph45%29.82 "Hg10 mi
3:56 PM77 °FSunny.14 mph48%29.83 "Hg10 mi
Weather by CustomWeather, © 2014

See weather overviewHow to use our weather pages